Location: ?????????
(38.5999°N, 22.7695°E)
Time: 09:55:51
(UTC+00:00)

Cosmos 2154 Rocket - Pass Details

Date: 17 August 2024
Orbit: 964 x 997 km, 82.9° (Epoch: 07 September)

Event Time Altitude Azimuth Distance (km) Brightness Sun altitude
Rises 01:58:56 0° 2° (N) 3,670 7.6 -19.3°
Reaches altitude 10° 02:01:44 10° 12° (NNE) 2,715 7.0 -18.8°
Maximum altitude 02:07:17 34° 75° (ENE) 1,549 5.7 -18.0°
Drops below altitude 10° 02:12:48 10° 139° (SE) 2,695 6.4 -17.1°
Sets 02:15:32 0° 148° (SSE) 3,638 7.0 -16.6°
